TimeEDT,TemperatureF,Dew PointF,Humidity,Sea Level PressureIn,VisibilityMPH,Wind Direction,Wind SpeedMPH,Gust SpeedMPH,PrecipitationIn,Events,Conditions,WindDirDegrees,DateUTC
12:53 AM,70.0,64.9,84,29.70,10.0,West,6.9,-,N/A,,Scattered Clouds,270,2013-06-29 04:53:00
1:53 AM,69.1,63.0,81,29.70,10.0,West,5.8,-,N/A,,Clear,270,2013-06-29 05:53:00
2:53 AM,68.0,64.0,87,29.68,10.0,WSW,6.9,-,N/A,,Clear,240,2013-06-29 06:53:00
3:53 AM,68.0,64.0,87,29.69,10.0,West,8.1,-,N/A,,Clear,260,2013-06-29 07:53:00
4:53 AM,68.0,64.0,87,29.69,10.0,West,4.6,-,N/A,,Clear,270,2013-06-29 08:53:00
5:53 AM,68.0,62.1,81,29.70,10.0,WSW,5.8,-,N/A,,Clear,250,2013-06-29 09:53:00
6:23 AM,68.0,62.6,83,29.75,10.0,WNW,5.8,-,N/A,,Scattered Clouds,290,2013-06-29 10:23:00
6:29 AM,69.8,64.4,83,29.75,10.0,West,8.1,-,N/A,,Mostly Cloudy,280,2013-06-29 10:29:00
6:53 AM,69.1,66.0,90,29.70,8.0,West,9.2,-,N/A,,Overcast,260,2013-06-29 10:53:00
7:11 AM,69.8,66.2,88,29.75,7.0,West,6.9,-,N/A,,Scattered Clouds,260,2013-06-29 11:11:00
7:53 AM,70.0,66.0,87,29.72,10.0,WSW,8.1,-,N/A,,Clear,250,2013-06-29 11:53:00
8:53 AM,72.0,68.0,87,29.71,9.0,West,6.9,-,N/A,,Partly Cloudy,260,2013-06-29 12:53:00
9:53 AM,75.9,68.0,76,29.71,10.0,Variable,6.9,-,N/A,,Scattered Clouds,0,2013-06-29 13:53:00
10:53 AM,75.0,68.0,79,29.73,10.0,WSW,8.1,-,N/A,,Overcast,250,2013-06-29 14:53:00
11:53 AM,78.1,68.0,71,29.73,10.0,SW,5.8,-,N/A,,Partly Cloudy,230,2013-06-29 15:53:00
12:53 PM,82.0,66.0,58,29.72,10.0,WSW,8.1,-,N/A,,Clear,250,2013-06-29 16:53:00
1:53 PM,84.0,63.0,49,29.70,10.0,WSW,12.7,19.6,N/A,,Clear,250,2013-06-29 17:53:00
2:53 PM,84.0,60.1,44,29.70,10.0,NW,11.5,-,N/A,,Partly Cloudy,310,2013-06-29 18:53:00
3:53 PM,84.9,60.1,43,29.68,10.0,WNW,8.1,-,N/A,,Clear,290,2013-06-29 19:53:00
4:53 PM,84.9,59.0,41,29.68,10.0,WNW,11.5,-,N/A,,Partly Cloudy,300,2013-06-29 20:53:00
5:53 PM,84.9,62.1,46,29.67,10.0,WNW,10.4,-,N/A,,Clear,300,2013-06-29 21:53:00
6:53 PM,82.9,59.0,44,29.68,10.0,WNW,8.1,-,N/A,,Clear,300,2013-06-29 22:53:00
7:53 PM,82.0,61.0,49,29.68,10.0,West,4.6,-,N/A,,Partly Cloudy,280,2013-06-29 23:53:00
8:53 PM,78.1,63.0,60,29.69,10.0,SW,3.5,-,N/A,,Clear,230,2013-06-30 00:53:00
9:53 PM,75.9,64.9,69,29.72,10.0,South,4.6,-,N/A,,Mostly Cloudy,190,2013-06-30 01:53:00
10:53 PM,75.0,66.0,73,29.73,10.0,South,4.6,-,N/A,,Mostly Cloudy,190,2013-06-30 02:53:00
11:53 PM,73.0,66.0,79,29.72,10.0,Calm,Calm,-,N/A,,Clear,0,2013-06-30 03:53:00